Theta_e
351 353 353 353 353 353 353 353 350 350 350 350 352 352 352 352 352 352 353 354 354 354 355 354 355 355 355 355 355 354 353 352 352 352 351 352 354 354 352 352 353 353 353 354 353 354 354 354 356 356 357 357 356 356 356 355 355 357 360 360 359 359 358
352 353 354 353 353 353 353 352 349 351 351 351 353 353 353 354 353 353 354 354 354 354 355 354 354 355 355 354 354 354 354 352 352 352 351 352 353 355 354 353 353 353 353 353 352 354 354 355 355 355 356 357 356 356 356 356 356 356 358 360 360 359 359
351 352 353 353 354 353 353 353 350 351 352 352 352 353 354 354 354 354 354 354 354 353 355 355 354 355 354 354 354 353 353 353 352 352 352 352 352 354 355 354 353 353 354 355 354 354 354 355 355 355 355 355 357 356 356 356 357 356 357 360 360 359 359
351 352 353 352 354 353 353 353 351 350 353 352 353 354 355 354 355 355 355 355 355 354 355 355 355 355 354 354 353 353 353 353 353 352 352 352 352 352 355 356 355 354 355 356 355 354 354 354 354 355 355 355 356 357 357 357 357 357 357 360 361 359 359
353 352 352 353 353 353 353 354 351 351 352 353 354 354 355 356 356 357 356 356 356 355 355 355 355 355 354 354 354 353 353 353 353 353 352 352 353 353 354 356 356 355 355 355 356 356 355 355 355 356 356 356 357 357 357 357 357 357 358 360 361 359 358
352 352 353 353 353 353 353 353 353 351 351 353 354 354 355 356 357 357 357 357 357 357 356 356 356 356 356 355 354 354 354 354 353 353 353 353 354 354 354 355 356 356 355 355 356 357 356 356 356 356 357 357 357 357 358 359 358 358 359 360 360 359 357
352 351 353 353 353 353 353 353 353 351 352 352 354 355 356 357 358 358 358 359 358 358 357 357 356 356 356 356 355 355 354 354 354 353 354 354 354 355 355 355 355 357 356 355 355 357 357 358 357 356 357 357 358 358 358 359 359 358 358 360 360 359 357
351 352 351 353 353 352 353 353 353 351 352 352 353 355 356 357 358 359 359 359 359 359 358 358 357 357 357 357 356 355 355 355 355 354 354 354 355 356 355 355 356 356 358 357 356 356 356 357 358 358 358 358 358 359 358 358 360 360 360 359 360 359 357
351 352 351 352 352 351 353 353 352 352 351 352 352 354 356 357 358 359 359 360 360 360 359 359 358 358 357 357 356 356 356 355 355 355 355 355 355 355 355 355 355 356 358 358 357 357 356 356 357 358 359 358 359 359 358 359 359 359 360 359 359 359 358
351 351 351 353 351 352 353 352 353 353 352 352 352 353 355 356 358 359 360 361 360 361 360 360 359 358 358 357 357 357 356 356 355 355 356 356 355 355 355 355 355 355 357 358 359 358 357 357 357 358 358 359 359 359 359 359 359 359 360 359 359 359 358
350 351 351 352 350 353 353 353 355 355 352 352 351 353 354 354 357 359 360 361 362 361 361 361 360 359 359 358 358 357 357 356 356 355 356 355 355 356 355 355 355 355 356 357 359 359 358 358 358 358 359 358 359 359 359 359 359 359 360 360 359 359 358
350 352 351 352 352 352 353 354 356 356 354 352 352 354 355 354 357 358 359 361 362 362 363 361 361 361 360 359 358 358 358 357 357 356 356 355 355 355 356 355 356 355 355 355 356 358 359 360 359 359 359 359 358 358 359 359 359 359 360 360 360 360 359
350 351 350 351 351 352 354 354 355 356 354 352 352 354 355 355 356 357 359 361 361 363 363 363 363 361 361 360 359 359 358 357 357 357 356 356 355 355 355 355 355 356 355 355 354 356 358 360 360 360 360 360 360 360 359 359 359 359 359 360 360 360 360
352 350 349 350 350 352 355 355 355 356 354 352 351 353 355 356 356 357 359 360 361 363 363 363 363 362 362 361 360 360 359 358 358 357 357 356 356 356 355 356 356 355 356 355 354 355 356 357 359 360 359 360 359 360 360 359 360 359 360 360 360 360 361
351 348 349 349 350 353 353 354 356 355 354 353 351 353 356 357 358 358 358 359 361 362 363 364 363 364 363 362 361 361 360 359 359 358 357 357 356 356 356 355 356 356 356 356 355 355 355 355 357 359 360 360 359 359 359 359 359 359 359 360 360 361 360
350 349 349 349 350 351 351 353 355 355 357 356 352 353 357 358 359 359 359 359 361 362 363 363 364 364 364 363 362 362 360 360 360 359 359 358 357 357 356 356 356 356 356 356 356 356 355 355 355 357 358 359 359 358 359 359 360 359 359 359 359 360 360
347 349 349 347 348 349 352 354 355 355 358 357 354 354 358 360 360 360 360 361 360 361 363 364 364 364 364 364 363 362 362 361 360 360 359 359 358 357 357 357 357 356 356 356 357 356 356 356 355 356 356 358 358 358 358 358 359 359 359 359 359 360 360
348 347 348 349 349 352 354 355 358 359 358 356 355 357 358 361 362 361 361 361 360 362 363 364 365 365 364 365 364 363 363 361 361 360 360 359 358 358 357 357 357 356 356 356 357 357 357 357 356 355 356 357 357 359 358 358 358 357 358 359 359 360 360
350 348 349 351 350 352 354 355 357 361 360 358 357 357 360 362 363 362 362 361 362 361 363 365 366 366 365 365 365 365 364 362 362 361 360 360 359 358 358 358 357 356 356 356 356 357 357 357 357 356 357 357 357 358 358 358 358 358 358 358 358 360 361
361 359 358 356 354 355 356 359 362 361 359 360 359 360 362 362 363 364 363 362 363 362 362 364 366 366 366 366 366 365 364 364 362 361 361 360 359 358 358 358 357 356 356 356 356 356 356 357 357 357 357 356 357 357 358 358 358 358 359 358 358 359 360
371 372 373 372 371 372 372 376 375 367 361 362 362 361 362 364 365 364 364 363 364 363 363 364 365 366 367 367 366 366 365 365 363 362 361 360 360 359 358 358 358 358 356 356 356 356 356 357 357 357 357 356 356 357 357 357 357 358 358 358 359 359 359
365 368 371 373 376 379 377 374 372 367 364 363 363 363 363 364 365 365 365 365 365 364 364 364 364 365 366 367 367 367 366 366 364 363 362 361 360 359 358 358 358 358 358 357 356 356 356 356 357 357 357 358 357 356 356 356 357 358 358 359 359 360 361
361 364 367 368 368 369 367 364 362 361 362 363 363 363 363 365 366 366 365 365 365 366 365 364 365 365 365 367 367 367 367 367 366 364 362 361 361 359 359 358 359 359 359 358 357 357 356 357 357 357 358 359 358 357 357 357 357 358 359 359 360 360 361
362 365 366 364 364 363 363 363 363 362 364 365 366 366 365 364 364 365 366 366 366 366 366 366 365 364 365 367 367 367 368 367 366 365 364 363 362 360 359 359 359 358 359 359 358 357 357 357 357 357 358 359 359 359 359 359 358 359 360 361 361 361 362
362 362 363 362 363 363 362 363 364 364 366 366 367 368 367 366 365 364 364 364 365 366 365 365 365 365 366 366 366 367 367 367 367 367 366 365 364 362 361 360 359 359 359 359 359 358 358 358 357 357 358 358 359 360 360 361 360 360 360 361 361 362 363
359 358 359 361 361 362 362 362 361 362 364 364 365 367 367 366 367 367 365 364 364 364 364 365 365 366 366 365 366 367 367 368 368 367 367 366 365 364 363 362 360 360 360 360 360 359 358 358 358 358 358 358 358 359 360 361 361 361 362 361 361 362 363
355 356 356 358 359 360 359 360 360 359 361 363 364 366 365 366 366 366 366 367 365 364 364 365 364 365 364 365 366 367 367 367 368 368 367 367 366 365 364 364 363 362 361 361 361 360 360 360 359 359 358 359 359 359 359 360 360 362 362 362 362 362 363
355 355 354 355 357 357 357 359 359 358 359 361 363 364 366 366 366 365 365 365 365 365 364 363 365 364 364 365 364 366 368 368 368 368 368 367 367 367 365 365 364 364 363 362 362 362 362 361 361 360 359 359 360 360 360 360 361 361 361 362 363 363 363
355 355 354 353 354 356 355 357 358 358 358 359 360 362 364 365 368 367 366 365 366 366 364 363 365 365 364 364 365 365 367 368 368 368 368 368 368 368 367 367 366 365 365 364 364 363 364 363 363 362 362 361 361 362 363 362 362 363 362 363 364 364 365
353 355 354 353 354 355 355 355 357 357 356 356 358 359 359 360 363 364 364 365 367 368 367 365 365 366 365 364 365 366 367 368 369 370 369 369 369 368 368 368 367 367 366 365 365 365 365 365 365 364 363 363 363 364 364 365 364 364 364 365 365 365 365
350 352 353 352 354 354 353 355 356 355 354 354 355 356 356 357 358 359 360 363 364 367 369 368 367 367 365 364 364 365 366 368 369 370 370 371 370 370 369 369 369 369 368 368 367 367 366 367 367 366 365 364 364 364 365 366 367 366 366 366 366 366 365
348 348 349 351 353 353 353 354 355 353 353 352 351 353 355 355 356 357 359 362 364 365 368 371 369 367 364 365 365 365 367 368 369 371 372 372 371 371 370 370 370 370 370 369 369 368 368 368 367 367 367 366 365 365 365 366 366 365 366 365 366 366 366
349 347 347 349 352 352 352 353 352 352 351 351 351 352 354 355 355 356 358 362 366 365 367 371 371 367 366 366 365 365 367 369 370 371 373 373 373 373 372 372 371 371 370 370 370 369 369 368 368 368 367 367 366 365 364 363 362 362 362 363 363 363 363
349 347 347 348 351 352 352 352 352 352 351 352 352 352 353 354 355 356 358 362 366 367 367 369 371 370 368 367 366 368 369 369 370 372 373 373 372 371 373 372 372 371 371 371 371 370 369 368 369 368 368 368 366 361 356 355 357 356 356 356 357 356 355
344 344 345 348 349 351 351 352 352 352 351 352 352 352 352 352 353 355 355 359 365 368 368 368 371 371 371 368 368 369 369 370 372 372 371 369 366 366 367 369 371 372 371 372 372 371 370 370 370 370 370 368 366 359 352 348 348 349 348 346 346 344 342
340 342 344 345 347 349 351 352 351 351 352 351 350 351 351 351 351 352 353 356 363 368 369 368 370 370 371 370 369 370 370 371 370 368 367 365 362 360 358 359 364 367 368 369 371 371 370 370 369 370 370 366 361 357 354 350 344 341 339 337 335 332 331
339 340 342 344 345 348 350 351 351 351 351 351 350 350 351 351 351 351 351 354 360 365 367 368 368 369 369 369 369 368 369 367 363 362 361 360 360 359 355 352 354 358 361 366 368 369 371 371 369 368 368 366 359 352 347 343 337 333 331 330 329 329 329
340 340 341 342 343 346 349 351 352 351 351 351 350 350 350 350 350 351 352 354 358 361 363 365 366 367 366 365 364 364 364 362 358 356 355 353 353 355 356 352 345 342 345 352 356 358 361 362 360 358 356 356 353 345 337 333 331 331 329 328 328 329 329
Wind_Speed
18 18 17 16 16 16 17 18 18 21 27 29 32 36 39 40 41 40 40 42 44 43 43 44 43 44 44 44 44 43 42 40 39 39 38 36 35 36 37 36 35 35 35 34 34 33 33 31 30 28 28 28 27 27 26 24 23 23 22 21 20 20 21
17 17 17 16 15 17 18 19 20 23 26 29 32 35 37 39 41 41 41 42 44 43 43 44 44 44 44 44 43 42 42 40 39 39 37 36 34 34 36 37 36 36 36 36 35 34 33 32 30 29 29 29 29 28 27 26 25 24 24 23 22 21 22
17 16 17 17 17 18 18 19 21 24 27 29 31 34 37 40 42 43 42 42 43 42 42 43 43 43 43 43 41 41 41 40 40 39 38 38 37 36 35 36 36 36 35 35 35 34 33 32 31 30 29 30 30 30 29 28 26 26 25 25 24 23 23
18 18 19 20 19 18 18 18 20 25 29 32 34 37 40 42 43 43 43 42 43 42 42 42 42 42 42 41 40 39 40 40 40 40 40 39 39 37 35 35 36 35 35 35 35 34 33 32 31 31 31 30 31 31 31 30 29 27 27 27 27 26 25
20 20 17 17 17 15 16 17 20 25 29 33 36 38 39 40 40 40 41 42 43 43 44 44 42 41 41 41 40 39 40 40 39 39 39 39 38 36 35 36 36 36 36 36 35 34 34 33 32 32 32 32 31 31 32 32 30 29 28 29 29 29 28
19 18 15 16 16 15 17 18 21 28 31 33 36 37 36 37 38 39 40 41 42 43 43 42 42 41 40 40 40 39 39 39 39 39 38 37 36 36 36 37 36 37 38 37 36 35 34 34 34 33 33 33 32 32 32 33 32 31 30 30 31 31 30
18 17 16 16 15 16 17 17 20 28 32 33 34 33 33 36 37 38 39 40 42 42 41 41 41 41 40 40 40 40 39 40 40 39 38 36 35 36 37 37 36 37 37 37 36 35 34 34 35 34 34 34 33 33 33 33 34 33 33 33 33 33 32
19 18 17 17 16 17 17 16 18 24 29 29 29 30 32 34 35 36 38 40 41 41 41 41 42 42 41 41 40 41 41 40 40 40 39 37 36 36 36 36 36 36 36 36 37 37 36 36 35 35 35 35 35 34 34 34 35 35 35 35 36 35 34
20 19 19 19 18 17 16 15 18 22 26 28 29 30 32 33 34 36 38 38 38 38 40 42 43 43 42 41 40 41 40 39 38 38 38 38 37 37 37 36 37 36 35 35 36 37 38 37 37 36 36 36 36 36 36 36 36 36 37 37 37 37 36
19 19 19 19 17 15 14 14 15 17 20 23 27 29 32 33 34 35 35 35 36 38 40 40 41 41 41 40 40 40 39 38 37 37 37 38 38 38 38 38 37 36 36 35 35 36 37 38 37 37 37 36 37 37 38 38 38 38 38 39 39 38 38
18 18 17 17 16 14 14 13 14 15 15 20 26 29 32 34 33 33 33 34 36 36 38 38 38 38 39 39 39 38 38 39 38 38 39 39 39 39 39 38 37 37 37 36 35 35 36 37 37 38 38 39 39 39 39 40 40 39 39 40 39 39 39
16 16 16 17 16 15 15 15 15 16 16 20 26 29 31 33 32 32 32 34 35 35 36 37 37 37 38 38 37 37 38 39 40 40 40 40 40 39 39 38 38 37 38 38 37 36 36 37 38 39 40 41 42 41 41 41 40 40 40 40 39 39 39
15 15 15 17 16 15 16 16 16 17 17 20 26 29 30 31 31 32 32 33 34 35 36 36 36 37 37 37 37 37 39 40 41 41 41 41 41 40 39 39 39 39 39 40 39 38 38 38 39 40 40 42 42 42 42 42 41 41 41 40 40 40 40
19 17 16 17 17 17 18 17 17 17 16 19 24 27 28 30 31 32 33 33 34 35 35 36 36 37 37 37 37 38 39 41 41 41 41 41 41 41 40 40 40 40 40 40 40 41 40 40 40 40 41 42 42 42 42 41 41 41 40 41 41 40 40
20 19 18 18 18 18 18 18 17 17 17 18 22 24 26 28 31 32 32 33 34 35 36 37 37 38 38 38 38 39 40 40 40 40 40 39 39 40 41 41 41 40 40 40 41 41 41 41 40 40 40 41 42 42 42 41 41 42 42 42 42 41 41
19 19 18 17 17 17 18 18 18 18 17 16 19 22 24 26 29 32 32 33 35 35 36 37 37 37 37 37 39 40 40 39 39 39 38 39 39 40 41 41 40 40 40 40 41 41 41 41 40 40 41 41 41 42 42 42 42 43 45 45 44 43 41
19 19 18 17 16 14 14 14 15 16 16 16 19 23 25 26 29 32 32 33 34 35 36 36 36 36 36 37 38 38 37 38 38 37 38 38 39 39 40 40 40 39 40 40 40 40 40 40 40 41 41 41 42 42 43 43 44 45 46 47 46 44 41
16 17 17 17 15 13 12 13 14 16 16 17 21 26 27 28 29 30 31 32 33 34 34 35 35 35 36 36 36 36 37 37 37 37 37 37 38 38 39 39 39 39 39 39 40 39 39 40 41 41 41 41 41 42 43 45 46 46 46 47 47 46 43
15 16 16 16 15 14 14 14 13 15 16 18 23 28 30 31 31 31 32 33 33 33 33 34 34 34 35 36 36 36 37 37 37 37 37 37 38 38 37 37 39 39 39 39 39 38 38 40 41 42 41 41 41 42 43 45 46 47 47 47 47 47 45
8 9 9 10 12 13 13 11 10 12 16 21 26 29 31 31 31 32 33 33 33 34 33 33 33 33 34 35 35 36 37 37 37 37 37 37 37 37 37 38 39 39 39 38 38 38 39 40 41 42 42 42 42 42 43 44 46 46 46 47 47 46 46
8 8 7 6 7 6 6 7 7 9 12 18 22 23 25 27 27 28 29 30 32 32 33 32 32 32 33 34 35 36 36 37 37 37 37 37 37 38 38 39 38 38 38 37 37 38 40 40 41 42 42 42 42 42 42 44 45 44 45 47 47 46 46
10 11 10 8 9 8 6 7 8 9 11 15 17 19 21 23 24 24 26 28 30 30 31 31 30 31 32 33 34 36 36 36 36 36 36 37 37 38 38 38 38 38 38 37 36 37 38 39 39 40 40 40 41 41 42 43 43 43 45 45 45 45 45
12 13 12 11 12 12 13 15 15 14 15 15 14 14 16 20 23 24 24 26 28 28 30 30 30 30 31 32 34 35 36 37 36 36 36 36 37 37 38 38 38 38 37 37 36 37 37 38 38 38 39 39 39 40 41 42 41 41 42 43 42 42 43
13 14 13 12 13 14 17 20 20 20 20 19 15 10 8 13 20 23 24 25 27 28 28 28 29 30 31 32 34 35 36 37 37 37 37 36 37 37 37 38 38 37 37 38 38 38 38 38 37 37 37 37 38 39 39 39 38 37 37 38 38 39 42
14 14 14 15 15 15 17 21 23 24 24 22 18 14 9 6 10 16 20 23 25 25 26 27 30 32 31 32 33 35 37 38 38 38 38 37 38 38 38 38 38 38 38 38 39 38 38 37 36 36 36 37 37 37 37 36 35 34 34 34 35 37 40
13 13 14 16 18 19 21 24 24 22 21 20 19 15 11 7 5 7 10 14 18 21 24 28 30 31 32 32 32 34 37 38 38 39 38 38 38 37 38 38 37 37 37 37 37 36 35 36 36 35 36 36 36 36 36 35 33 32 33 33 33 34 36
14 16 17 18 21 22 22 22 22 21 20 20 20 18 14 9 5 4 3 4 9 14 17 20 24 27 30 31 32 33 35 36 38 39 39 39 38 37 37 37 36 36 36 35 35 34 33 34 34 34 34 34 34 34 34 33 32 32 33 33 34 33 34
14 16 19 21 23 23 20 19 19 21 22 22 21 19 16 11 7 3 2 1 3 6 8 10 15 21 26 29 31 32 33 35 36 37 37 38 37 35 35 35 35 35 35 34 33 32 32 32 32 31 31 31 31 32 32 31 31 31 32 33 33 33 33
13 13 14 17 20 21 20 17 16 17 19 20 21 20 18 15 11 7 4 4 6 7 7 9 12 16 22 26 28 30 31 33 34 34 34 35 35 35 33 33 33 33 33 33 31 30 30 30 29 29 28 27 28 28 28 28 28 29 31 31 31 30 31
11 11 11 13 15 18 17 14 12 13 17 19 19 19 20 18 15 12 9 8 9 9 7 10 12 15 20 24 26 27 28 30 31 32 32 32 33 33 32 32 32 31 32 32 30 28 27 27 27 26 25 24 24 24 23 23 24 27 29 29 28 28 30
10 10 11 12 15 17 16 13 11 12 15 17 18 17 18 19 17 15 14 12 10 10 7 7 13 17 20 23 24 25 26 27 28 30 30 31 32 32 32 31 30 29 29 29 28 27 25 24 24 24 23 22 22 21 20 21 23 25 26 27 28 29 30
10 12 11 10 12 16 17 16 14 14 14 16 18 17 16 18 17 16 16 14 10 9 8 5 11 17 20 22 23 24 24 24 25 27 27 29 31 32 32 32 30 27 26 27 27 25 24 23 23 23 22 21 21 19 18 17 18 19 19 19 21 23 24
10 11 12 11 11 14 17 15 12 12 13 14 16 16 15 15 15 15 15 14 10 7 7 4 8 15 18 20 21 22 23 23 24 24 25 26 29 30 30 30 29 26 26 26 25 23 22 22 22 21 21 20 19 17 16 14 13 12 11 11 11 11 11
8 9 13 16 14 14 15 13 10 10 11 11 12 13 13 12 12 13 14 14 11 7 5 3 5 11 15 18 19 20 21 22 23 23 23 22 22 21 21 22 24 25 26 26 25 23 22 21 21 22 22 21 19 16 15 14 14 13 12 11 11 10 10
8 10 12 14 14 13 12 11 10 9 9 8 9 10 10 10 10 11 13 13 11 7 4 3 3 6 11 14 16 17 19 20 22 23 23 20 16 14 12 13 17 20 23 25 26 26 25 24 24 25 24 22 21 20 19 18 16 15 14 13 12 11 10
9 11 13 16 18 17 14 11 10 9 7 7 9 10 10 10 10 10 11 11 10 6 5 5 4 4 7 10 12 14 16 18 19 21 22 21 19 17 13 9 9 14 17 20 22 23 24 24 24 25 24 21 20 20 21 20 19 17 15 14 13 11 11
9 10 14 18 19 17 14 10 9 8 5 6 9 10 9 9 10 10 10 10 9 5 5 7 6 6 7 10 12 14 17 18 20 21 22 23 22 22 20 17 13 9 9 12 14 17 19 20 18 19 21 22 20 19 18 19 19 17 15 14 12 11 10
15 15 17 18 17 16 14 9 6 5 5 6 8 8 7 7 8 9 8 7 7 5 4 8 9 10 10 12 14 17 19 21 22 22 23 23 23 24 25 25 24 21 17 14 13 14 15 16 16 17 18 19 22 24 23 21 18 15 14 13 11 10 9
Wind_Direction
180 184 185 187 187 186 187 187 187 185 185 185 183 182 182 182 183 183 185 187 188 190 192 193 194 195 197 200 202 203 203 204 204 204 204 204 204 203 203 204 205 208 211 213 216 217 218 219 217 216 215 216 219 221 224 226 227 228 228 228 228 226 222
182 185 185 186 188 187 187 187 186 186 186 187 185 183 183 183 184 185 186 188 190 190 191 193 194 196 198 200 202 203 204 205 205 205 206 206 206 205 205 205 206 208 212 215 218 219 219 219 218 218 217 218 220 222 224 227 228 228 228 226 226 227 226
188 186 184 186 189 189 187 185 186 187 187 187 185 184 185 186 186 186 188 188 190 191 191 193 195 196 199 200 201 203 204 205 206 206 207 207 208 207 206 206 207 209 212 215 218 219 220 220 220 220 219 219 220 222 224 227 228 229 228 227 227 228 229
190 189 188 189 189 188 186 185 186 187 188 188 187 187 188 188 187 187 188 189 190 192 193 194 195 197 199 200 201 204 205 206 207 208 209 209 209 208 207 207 208 209 212 215 217 218 220 221 221 221 220 220 220 221 223 226 228 228 227 226 227 230 231
192 191 189 189 187 187 186 187 188 187 189 189 189 190 190 188 187 187 189 191 192 194 195 196 197 197 199 200 202 204 206 208 209 210 210 211 210 209 208 209 209 210 212 214 216 217 219 220 222 221 220 220 221 222 222 224 227 228 226 224 226 230 232
193 191 189 189 187 186 187 189 189 188 189 190 190 190 188 186 186 188 189 191 193 195 196 197 197 198 199 200 202 204 206 208 209 211 211 211 211 210 210 211 210 211 213 214 215 216 218 220 221 221 220 220 221 222 222 223 225 227 226 225 226 229 230
190 188 189 190 186 186 188 189 189 189 190 192 191 189 186 186 188 189 190 191 193 194 195 196 198 199 200 201 202 204 206 207 209 210 212 212 212 212 212 212 212 213 213 213 214 215 216 218 220 220 220 220 221 223 223 223 223 224 226 225 226 228 230
187 186 187 188 187 187 188 187 187 188 190 190 190 189 188 189 189 190 191 193 194 194 194 196 197 199 200 201 203 205 206 207 208 210 211 212 213 214 214 214 214 214 214 213 214 214 215 217 218 220 220 220 222 223 224 224 224 223 223 224 225 226 228
185 184 186 186 187 187 186 186 185 186 188 188 189 191 191 191 191 192 194 194 193 194 195 197 198 199 200 201 203 205 206 207 208 209 210 211 213 215 215 215 215 214 214 214 215 215 216 217 218 219 220 221 222 223 225 225 225 224 223 223 224 225 226
185 184 187 185 184 185 183 182 182 184 187 187 188 190 192 194 195 195 195 193 193 195 197 197 198 199 200 201 203 204 205 207 208 209 210 211 213 215 216 216 216 215 215 215 215 216 217 218 219 219 220 221 223 224 225 226 225 225 224 224 224 225 225
184 181 185 183 179 179 176 175 180 185 188 187 187 190 193 196 197 196 195 194 194 196 197 197 198 199 200 201 202 203 204 206 207 208 210 212 213 215 216 216 216 216 216 216 216 217 217 218 218 219 219 221 223 224 225 226 225 225 225 225 225 225 225
184 180 179 179 177 176 176 178 183 186 186 186 187 189 193 196 196 196 196 195 196 196 197 197 198 198 200 201 202 203 204 205 207 208 210 212 213 215 216 216 217 217 217 217 217 217 218 218 218 218 220 222 223 224 225 226 226 225 226 226 225 225 226
184 180 175 176 177 178 179 182 184 185 185 187 188 189 191 193 194 195 196 196 196 197 196 196 197 197 199 201 202 204 205 206 208 209 210 211 213 214 215 216 217 217 217 218 217 217 217 218 218 218 220 222 224 224 226 226 226 226 227 226 226 226 226
182 180 177 178 179 180 182 184 185 184 186 187 188 188 188 190 192 194 196 196 196 196 196 196 195 196 198 200 202 205 207 208 209 210 211 212 213 214 215 216 217 217 217 218 217 218 218 218 219 219 220 223 224 225 226 226 226 226 227 227 227 227 227
182 181 179 179 181 182 184 185 183 183 186 187 186 186 185 187 191 194 195 196 196 196 196 196 195 196 198 199 202 205 207 209 210 211 212 212 213 214 215 216 216 216 217 218 218 218 219 219 220 220 220 222 224 226 227 227 227 227 227 227 227 227 228
182 182 181 181 184 188 189 186 184 183 184 184 185 185 184 186 190 192 194 195 195 196 197 196 195 196 198 200 203 206 207 208 209 211 211 212 213 214 215 216 217 216 217 217 218 219 219 220 220 221 221 222 223 225 226 227 228 228 229 229 228 228 228
180 181 182 183 185 189 189 186 183 182 182 184 186 186 185 187 190 192 194 195 195 196 196 195 196 197 199 201 204 206 207 208 209 210 211 212 213 214 215 216 216 217 217 218 218 219 219 219 220 221 222 222 223 225 226 227 228 229 230 231 230 229 228
176 179 182 184 182 181 182 183 182 182 185 187 187 187 187 187 188 191 194 195 195 195 195 196 197 198 200 203 204 205 206 207 209 210 212 212 213 214 216 216 217 217 218 218 219 219 219 219 220 221 222 222 224 225 226 229 230 230 231 232 232 231 229
171 178 180 180 178 177 181 183 183 184 186 186 187 188 190 189 189 192 194 194 194 195 195 196 197 199 201 204 204 205 207 207 209 210 211 212 213 214 215 216 217 217 218 219 219 219 219 220 221 222 222 222 224 226 227 230 232 232 232 233 234 233 231
142 157 162 167 171 177 181 179 177 179 184 187 189 190 190 190 191 193 193 192 193 194 195 197 198 199 201 203 204 205 207 207 208 210 211 212 213 213 214 215 217 218 218 219 219 219 220 221 222 223 223 222 224 226 229 231 233 233 233 234 235 234 233
74 85 89 104 117 128 146 151 154 165 175 183 186 186 187 190 192 192 191 191 192 194 197 199 199 201 202 203 204 205 205 206 207 208 210 211 211 211 213 215 216 217 218 219 219 220 221 223 223 225 225 224 225 227 230 232 234 234 235 236 236 236 235
73 75 76 80 82 81 87 100 114 132 150 167 175 179 184 189 189 188 189 192 193 196 199 201 202 203 203 202 203 204 205 205 206 207 208 209 209 210 212 214 215 216 217 217 219 222 224 225 226 226 227 227 226 227 231 234 234 235 236 237 237 236 235
77 76 74 74 75 73 72 73 78 91 110 127 142 161 179 187 187 187 189 192 196 199 201 203 205 205 204 203 203 203 204 204 205 206 207 208 208 209 211 213 215 216 215 216 218 221 223 225 227 228 229 229 228 228 231 234 235 235 236 238 238 236 235
70 72 71 66 66 65 64 66 68 72 80 85 83 90 134 176 187 190 190 194 198 201 202 205 208 208 206 205 204 204 204 205 205 206 206 207 208 209 211 213 214 215 215 215 217 220 222 225 227 229 230 231 231 231 232 234 236 236 237 238 237 236 235
64 65 64 60 61 60 58 60 61 60 60 58 51 49 67 117 168 185 192 198 200 200 204 208 210 211 209 207 206 205 205 205 205 206 207 207 208 210 211 212 214 215 215 216 217 220 222 224 226 229 230 232 233 233 234 235 236 237 237 237 237 236 236
61 61 58 52 51 53 55 56 56 53 49 43 37 37 45 60 100 150 179 196 201 204 210 213 213 213 212 210 208 207 206 206 205 206 207 208 209 210 211 212 213 214 215 216 218 220 222 223 225 228 230 231 233 234 235 235 235 235 236 237 236 235 234
58 57 55 49 44 44 47 49 51 50 44 37 34 33 31 33 50 82 114 175 202 214 222 223 221 218 215 212 210 208 207 207 207 206 207 209 210 211 211 212 212 213 214 215 217 219 221 223 225 227 230 232 232 233 234 235 235 235 236 237 237 235 233
53 50 48 46 42 39 38 40 46 48 43 37 34 30 24 22 25 19 355 293 268 263 253 242 232 225 219 214 211 209 208 208 208 207 207 208 209 209 209 211 212 212 213 214 214 216 219 222 224 226 230 232 233 234 235 234 235 236 237 237 237 236 234
56 50 46 44 41 39 37 37 41 45 45 42 38 33 28 24 22 19 10 351 337 316 279 252 239 230 223 218 213 211 209 208 208 207 206 206 207 207 208 209 210 211 212 212 212 214 217 220 222 225 228 230 232 233 234 233 234 236 238 238 237 237 237
53 53 52 49 46 43 41 41 44 48 47 43 38 34 31 27 25 21 18 7 354 341 296 250 234 226 222 219 216 213 210 208 207 206 205 204 204 204 205 207 208 208 209 209 210 211 214 217 218 221 224 227 229 230 231 233 234 236 237 237 237 239 241
45 47 48 47 47 45 42 46 54 54 48 40 33 26 22 21 20 13 4 354 347 347 331 259 228 219 216 216 215 213 210 208 206 204 203 202 200 201 203 205 205 205 205 205 206 208 211 214 215 217 220 221 224 227 228 230 231 232 233 235 237 239 241
35 38 39 40 44 44 43 47 52 49 40 32 26 20 13 12 12 6 357 348 339 342 342 289 227 215 211 211 211 210 207 204 202 201 200 199 199 201 203 203 203 201 201 202 204 207 209 209 210 213 215 217 219 221 221 220 220 222 225 229 234 237 238
20 26 27 22 30 40 43 45 47 43 36 26 18 14 10 6 2 357 352 346 336 330 337 309 231 214 208 206 206 205 202 199 196 195 194 195 198 200 203 203 201 199 199 200 202 205 207 208 208 208 209 212 213 208 201 195 191 190 194 198 201 208 213
11 17 20 18 23 36 39 37 40 43 38 25 11 7 7 3 355 349 347 345 335 317 316 311 236 216 210 206 202 199 197 195 191 187 186 188 191 194 197 199 199 200 203 204 205 204 204 204 204 206 208 208 201 186 173 170 169 165 161 160 160 159 160
6 9 15 16 19 26 33 38 40 35 27 17 3 356 359 360 352 344 344 344 334 310 278 266 231 209 208 206 200 195 193 190 186 181 175 171 166 164 170 187 197 201 205 209 211 211 212 210 208 209 211 204 192 180 169 159 155 155 151 148 148 149 150
6 4 5 8 10 12 19 29 24 10 3 360 352 347 345 343 339 339 342 341 329 299 245 223 199 175 181 184 182 183 181 175 172 171 166 160 153 144 134 141 178 196 203 207 209 210 213 214 211 208 205 194 183 180 177 164 152 149 147 145 144 142 140
3 2 1 4 5 1 358 3 7 2 350 339 339 341 341 337 333 330 333 334 325 292 226 202 185 164 157 160 161 163 164 162 159 159 157 154 151 144 128 111 107 127 167 189 196 200 203 205 202 197 196 188 172 160 157 152 145 143 142 140 138 134 129
359 4 2 360 357 347 339 343 358 358 338 325 330 334 334 336 338 333 328 329 323 300 214 182 173 161 153 154 154 153 155 155 153 151 149 145 143 140 132 116 101 91 93 111 131 145 157 163 159 155 159 163 156 146 141 139 138 139 139 136 133 129 124